| time (UTC) | temp F | wind direction | speed MPH | gust MPH | rain 1hr in | rain 24hr in | rain mn in | humidity % | barometer mb |
| 20260504081551 | 68 | 0 | 0.0 | 3.0 | 0.00 | 0.00 | 0.00 | 76 | 1015.2 |
| 20260504044556 | 71 | 360 | 0.0 | 3.0 | 0.00 | 0.00 | 0.00 | 74 | 1016.3 |
| 20260504043100 | 71 | 360 | 1.0 | 5.0 | 0.00 | 0.00 | 0.00 | 73 | 1016.1 |
| 20260504041549 | 72 | 0 | 0.0 | 5.0 | 0.00 | 0.00 | 0.00 | 73 | 1016.5 |
| 20260504040113 | 72 | 0 | 0.0 | 2.0 | 0.00 | 0.00 | 0.00 | 72 | 1016.6 |
| 20260504034551 | 72 | 0 | 0.0 | 4.0 | 0.00 | 0.00 | 0.00 | 71 | 1016.8 |
| 20260504033052 | 72 | 0 | 0.0 | 2.0 | 0.00 | 0.00 | 0.00 | 70 | 1016.8 |
| 20260504031559 | 72 | 0 | 0.0 | 1.0 | 0.00 | 0.00 | 0.00 | 70 | 1016.7 |
| 20260504030053 | 72 | 0 | 0.0 | 2.0 | 0.00 | 0.00 | 0.00 | 70 | 1016.6 |
| 20260504024552 | 72 | 0 | 0.0 | 3.0 | 0.00 | 0.00 | 0.00 | 70 | 1016.4 |
| 20260504023053 | 72 | 0 | 1.0 | 5.0 | 0.00 | 0.00 | 0.00 | 70 | 1016.2 |
| 20260504021550 | 73 | 0 | 0.0 | 2.0 | 0.00 | 0.00 | 0.00 | 70 | 1016.1 |
| 20260504020108 | 73 | 0 | 0.0 | 2.0 | 0.00 | 0.00 | 0.00 | 71 | 1015.9 |
| 20260504014554 | 73 | 0 | 0.0 | 3.0 | 0.00 | 0.00 | 0.00 | 71 | 1015.7 |
| 20260504013053 | 73 | 0 | 0.0 | 2.0 | 0.00 | 0.00 | 0.00 | 71 | 1015.3 |
| 20260504011553 | 73 | 26 | 0.0 | 1.0 | 0.00 | 0.00 | 0.00 | 71 | 1015.3 |
| 20260504010054 | 74 | 0 | 0.0 | 4.0 | 0.00 | 0.00 | 0.00 | 71 | 1015.0 |
| 20260504004550 | 74 | 0 | 0.0 | 3.0 | 0.00 | 0.00 | 0.00 | 71 | 1014.9 |
| 20260504003053 | 74 | 268 | 0.0 | 6.0 | 0.00 | 0.00 | 0.00 | 72 | 1014.7 |
| 20260504001555 | 74 | 250 | 1.0 | 5.0 | 0.00 | 0.00 | 0.00 | 72 | 1014.6 |
| 20260504000054 | 74 | 341 | 1.0 | 6.0 | 0.00 | 0.00 | 0.00 | 71 | 1014.4 |
| 20260503234612 | 75 | 314 | 2.0 | 8.0 | 0.00 | 0.00 | 0.00 | 72 | 1014.5 |
| 20260503233052 | 75 | 275 | 1.0 | 6.0 | 0.00 | 0.00 | 0.00 | 71 | 1014.4 |
| 20260503231553 | 75 | 290 | 2.0 | 7.0 | 0.00 | 0.00 | 0.00 | 70 | 1014.6 |
| 20260503230051 | 75 | 270 | 2.0 | 9.0 | 0.00 | 0.00 | 0.00 | 71 | 1014.6 |
| 20260503224553 | 76 | 360 | 2.0 | 6.0 | 0.00 | 0.01 | 0.00 | 70 | 1014.6 |
| 20260503223051 | 76 | 360 | 0.0 | 8.0 | 0.00 | 0.01 | 0.00 | 70 | 1014.6 |
| 20260503221606 | 76 | 338 | 3.0 | 6.0 | 0.00 | 0.01 | 0.00 | 69 | 1014.7 |
| 20260503220053 | 76 | 360 | 1.0 | 6.0 | 0.00 | 0.01 | 0.00 | 69 | 1014.7 |
| 20260503214552 | 76 | 17 | 2.0 | 8.0 | 0.00 | 0.06 | 0.00 | 70 | 1014.7 |
| 20260503213048 | 76 | 360 | 2.0 | 8.0 | 0.00 | 0.06 | 0.00 | 68 | 1014.7 |
| 20260503211549 | 76 | 360 | 1.0 | 5.0 | 0.00 | 0.06 | 0.00 | 68 | 1014.7 |
| 20260503210052 | 77 | 360 | 2.0 | 8.0 | 0.00 | 0.06 | 0.00 | 68 | 1014.7 |
| 20260503204550 | 77 | 360 | 2.0 | 9.0 | 0.00 | 0.09 | 0.00 | 66 | 1014.7 |
| 20260503203055 | 77 | 360 | 2.0 | 8.0 | 0.00 | 0.09 | 0.00 | 67 | 1014.7 |
| 20260503201551 | 78 | 360 | 2.0 | 5.0 | 0.00 | 0.09 | 0.00 | 66 | 1014.8 |
| 20260503200055 | 78 | 360 | 2.0 | 6.0 | 0.00 | 0.09 | 0.00 | 66 | 1015.2 |
| 20260503194559 | 78 | 360 | 2.0 | 6.0 | 0.00 | 0.16 | 0.00 | 65 | 1015.5 |
| 20260503193052 | 78 | 360 | 0.0 | 5.0 | 0.00 | 0.16 | 0.00 | 63 | 1015.6 |
| 20260503191554 | 77 | 0 | 0.0 | 4.0 | 0.00 | 0.16 | 0.00 | 59 | 1015.8 |
| 20260503190053 | 78 | 0 | 0.0 | 3.0 | 0.00 | 0.16 | 0.00 | 61 | 1016.2 |
| 20260503184549 | 77 | 0 | 0.0 | 3.0 | 0.00 | 0.58 | 0.00 | 60 | 1016.4 |
| 20260503183051 | 77 | 360 | 0.0 | 3.0 | 0.00 | 0.58 | 0.00 | 62 | 1016.6 |
| 20260503181551 | 77 | 0 | 0.0 | 2.0 | 0.00 | 0.58 | 0.00 | 62 | 1016.7 |
| 20260503180100 | 76 | 0 | 0.0 | 2.0 | 0.00 | 0.58 | 0.00 | 64 | 1017.0 |
| 20260503174559 | 75 | 0 | 0.0 | 3.0 | 0.00 | 0.58 | 0.00 | 64 | 1016.9 |
| 20260503173050 | 75 | 360 | 0.0 | 5.0 | 0.00 | 0.58 | 0.00 | 65 | 1016.9 |
| 20260503171552 | 76 | 109 | 0.0 | 4.0 | 0.00 | 0.58 | 0.00 | 63 | 1017.1 |